Date,TemperatureHighF,TemperatureAvgF,TemperatureLowF,DewpointHighF,DewpointAvgF,DewpointLowF,HumidityHigh,HumidityAvg,HumidityLow,PressureMaxIn,PressureMinIn,WindSpeedMaxMPH,WindSpeedAvgMPH,GustSpeedMaxMPH,PrecipitationSumIn
2013-4-1,77,62,52,63,54,46,100,79,36,0.00,40.00,6,3,14,0.01
2013-4-2,78,64,49,56,52,49,100,69,37,0.00,40.00,10,4,20,0.00
2013-4-3,62,54,48,57,53,48,100,95,74,0.00,40.00,17,9,31,1.21
2013-4-4,53,49,46,52,49,45,100,98,90,0.00,40.00,6,1,11,0.04
2013-4-5,67,53,45,49,46,44,100,81,47,0.00,40.00,10,3,18,0.01
2013-4-6,75,58,39,53,46,39,100,71,38,0.00,40.00,12,5,21,0.00
2013-4-7,75,63,52,61,55,52,100,78,45,0.00,40.00,9,6,21,0.00
2013-4-8,79,69,59,68,62,59,100,80,50,0.00,40.00,16,9,26,0.00
2013-4-9,83,74,69,71,69,67,100,85,59,0.00,40.00,21,13,31,0.00
2013-4-10,82,75,71,71,69,67,96,83,62,0.00,40.00,18,12,31,0.00
2013-4-11,74,64,48,72,62,48,100,95,81,0.00,40.00,13,8,26,0.72
2013-4-12,74,57,40,50,44,39,100,70,28,0.00,40.00,9,4,16,0.01
2013-4-13,79,63,47,54,44,38,97,58,23,0.00,40.00,12,6,21,0.01
2013-4-14,76,64,57,62,59,54,100,86,59,0.00,40.00,15,7,23,1.66
2013-4-15,81,68,56,73,65,56,100,92,69,0.00,40.00,12,6,19,0.01
2013-4-16,84,76,71,74,71,67,100,86,58,0.00,40.00,13,10,21,0.01
2013-4-17,85,76,70,73,70,68,100,84,56,0.00,40.00,14,10,27,0.00
2013-4-18,81,74,59,73,70,59,100,88,68,0.00,40.00,15,12,30,0.16
2013-4-19,60,51,42,59,42,35,100,73,41,0.00,40.00,14,9,30,0.57
2013-4-20,69,54,36,42,37,33,100,62,29,0.00,40.00,10,5,21,0.01
2013-4-21,74,59,45,47,41,36,84,54,30,0.00,40.00,10,6,17,0.00
2013-4-22,79,64,46,62,50,46,100,68,36,0.00,40.00,8,5,16,0.00
2013-4-23,81,71,63,66,63,62,100,80,53,0.00,40.00,11,10,21,0.00
2013-4-24,68,61,53,67,60,51,100,96,88,0.00,40.00,13,7,23,0.85
2013-4-25,69,58,50,51,47,39,100,71,34,0.00,40.00,9,6,16,0.12
2013-4-26,79,64,49,62,53,43,100,69,44,0.00,40.00,10,6,16,0.00
2013-4-27,80,70,62,70,65,61,100,86,59,0.00,40.00,14,5,22,0.00
2013-4-28,74,69,62,70,67,61,100,93,64,0.00,40.00,10,4,15,0.36
2013-4-29,82,67,54,67,58,54,100,79,40,0.00,40.00,5,2,10,0.01
2013-4-30,76,68,60,68,66,60,100,92,71,0.00,40.00,11,6,24,0.88